Location: Berg
(48.5667°N, 13.9833°E)
Time: 06:32:01
(UTC+00:00)

Cosmos 1980 Rocket - Pass Details

Date: 09 April 2020
Orbit: 828 x 850 km, 71.0° (Epoch: 29 May)

Event Time Altitude Azimuth Distance (km) Brightness Sun altitude
Rises 19:53:13 0° 335° (NNW) 3,388 6.4 -19.5°
Reaches altitude 10° 19:55:58 10° 346° (NNW) 2,453 5.3 -19.9°
Maximum altitude 20:00:55 31° 48° (NE) 1,441 3.3 -20.5°
Enters shadow 20:02:39 26° 80° (E) 1,604 3.3 -20.7°
